• In Netherlands
  • List of Countries
  • For 7 days
  • Water Temperature
  • Satellite Maps
  • Weather Map
  • Weather Widgets
  • user-avatar
    Login

    Hourly Weather Klagenfurt

    Today, 27 May, Saturday

    Time Temperature Precipitation Wind Pressure Humidity
    00:00 +8°C° 0 mm 1 mps 691 mmHg 94%
    01:00 +8°C° 0 mm 1 mps 691 mmHg 94%
    02:00 +8°C° 0 mm 1 mps 691 mmHg 94%
    03:00 +8°C° 0 mm 1 mps 691 mmHg 94%
    04:00 +8°C° 0 mm 1 mps 691 mmHg 94%
    05:00 +10°C° 0 mm 1 mps 692 mmHg 86%
    06:00 +13°C° 0 mm 1 mps 693 mmHg 79%
    07:00 +15°C° 0 mm 0 mps 693 mmHg 71%
    08:00 +19°C° 0 mm 1 mps 694 mmHg 63%
    09:00 +21°C° 0 mm 1 mps 694 mmHg 56%
    10:00 +22°C° 0 mm 1 mps 694 mmHg 48%
    11:00 +23°C° 0 mm 1 mps 694 mmHg 46%
    12:00 +24°C° 0 mm 1 mps 694 mmHg 45%
    13:00 +24°C° 0 mm 1 mps 695 mmHg 43%
    14:00 +24°C° 0 mm 1 mps 694 mmHg 46%
    15:00 +23°C° 0 mm 2 mps 694 mmHg 48%
    16:00 +23°C° 0 mm 2 mps 694 mmHg 51%
    17:00 +21°C° 0 mm 1 mps 694 mmHg 61%
    18:00 +19°C° 0 mm 1 mps 693 mmHg 72%
    19:00 +16°C° 0 mm 1 mps 693 mmHg 82%
    20:00 +15°C° 0 mm 1 mps 693 mmHg 86%
    21:00 +13°C° 0 mm 1 mps 694 mmHg 90%
    22:00 +12°C° 0 mm 1 mps 694 mmHg 93%
    23:00 +11°C° 0 mm 1 mps 694 mmHg 94%

    Tomorrow, 28 May, Sunday

    Time Temperature Precipitation Wind Pressure Humidity
    00:00 +9°C° 0 mm 0 mps 694 mmHg 94%
    01:00 +9°C° 0 mm 0 mps 694 mmHg 95%
    02:00 +9°C° 0 mm 0 mps 694 mmHg 95%
    03:00 +8°C° 0 mm 0 mps 694 mmHg 95%
    04:00 +8°C° 0 mm 0 mps 693 mmHg 95%
    05:00 +10°C° 0 mm 0 mps 694 mmHg 89%
    06:00 +12°C° 0 mm 0 mps 695 mmHg 83%
    07:00 +16°C° 0 mm 1 mps 695 mmHg 77%
    08:00 +18°C° 0 mm 1 mps 696 mmHg 70%
    09:00 +20°C° 0 mm 1 mps 696 mmHg 63%
    10:00 +21°C° 0 mm 1 mps 696 mmHg 55%
    11:00 +22°C° 0 mm 1 mps 696 mmHg 52%
    12:00 +23°C° 0 mm 2 mps 696 mmHg 49%
    13:00 +24°C° 0 mm 2 mps 696 mmHg 45%
    14:00 +24°C° 0 mm 2 mps 696 mmHg 47%
    15:00 +23°C° 0 mm 2 mps 695 mmHg 48%
    16:00 +23°C° 0 mm 2 mps 695 mmHg 50%
    17:00 +20°C° 0 mm 2 mps 695 mmHg 60%
    18:00 +19°C° 0 mm 1 mps 694 mmHg 70%
    19:00 +18°C° 0 mm 1 mps 694 mmHg 80%
    20:00 +15°C° 0 mm 1 mps 694 mmHg 85%
    21:00 +12°C° 0 mm 1 mps 694 mmHg 89%
    22:00 +10°C° 0 mm 1 mps 693 mmHg 94%
    23:00 +10°C° 0 mm 1 mps 693 mmHg 94%

    Day after tomorrow, 29 May, Monday

    Time Temperature Precipitation Wind Pressure Humidity
    00:00 +10°C° 0 mm 1 mps 693 mmHg 94%
    01:00 +8°C° 0 mm 0 mps 693 mmHg 94%
    02:00 +8°C° 0 mm 0 mps 692 mmHg 94%
    03:00 +8°C° 0 mm 0 mps 692 mmHg 94%
    04:00 +8°C° 0 mm 0 mps 692 mmHg 94%
    05:00 +11°C° 0 mm 0 mps 692 mmHg 87%
    06:00 +13°C° 0 mm 0 mps 693 mmHg 81%
    07:00 +16°C° 0 mm 0 mps 693 mmHg 74%
    08:00 +20°C° 0 mm 1 mps 693 mmHg 66%
    09:00 +22°C° 0 mm 1 mps 694 mmHg 58%
    10:00 +24°C° 0 mm 1 mps 694 mmHg 49%
    11:00 +25°C° 0 mm 1 mps 694 mmHg 46%
    12:00 +26°C° 0 mm 1 mps 694 mmHg 43%
    13:00 +26°C° 0 mm 1 mps 694 mmHg 40%
    14:00 +26°C° 0 mm 2 mps 693 mmHg 42%
    15:00 +26°C° 0 mm 2 mps 693 mmHg 44%
    16:00 +25°C° 0 mm 2 mps 693 mmHg 47%
    17:00 +23°C° 0 mm 1 mps 692 mmHg 58%
    18:00 +21°C° 0 mm 1 mps 692 mmHg 69%
    19:00 +19°C° 0 mm 1 mps 691 mmHg 80%
    20:00 +16°C° 0 mm 1 mps 691 mmHg 85%
    21:00 +14°C° 0 mm 1 mps 691 mmHg 89%
    22:00 +12°C° 0 mm 1 mps 691 mmHg 94%
    23:00 +12°C° 0 mm 1 mps 690 mmHg 94%

    30 May, Tuesday

    Time Temperature Precipitation Wind Pressure Humidity
    00:00 +12°C° 0 mm 1 mps 690 mmHg 95%
    01:00 +12°C° 0 mm 1 mps 690 mmHg 95%
    02:00 +11°C° 0 mm 1 mps 690 mmHg 95%
    03:00 +11°C° 0 mm 1 mps 690 mmHg 95%
    04:00 +11°C° 0 mm 1 mps 690 mmHg 95%
    05:00 +13°C° 0 mm 0 mps 690 mmHg 89%
    06:00 +15°C° 0 mm 0 mps 691 mmHg 83%
    07:00 +18°C° 0 mm 0 mps 692 mmHg 76%
    08:00 +20°C° 0 mm 0 mps 692 mmHg 68%
    09:00 +22°C° 0 mm 0 mps 692 mmHg 59%
    10:00 +26°C° 0 mm 1 mps 693 mmHg 51%
    11:00 +27°C° 0.1 mm 1 mps 693 mmHg 49%
    12:00 +27°C° 0.1 mm 1 mps 693 mmHg 48%
    13:00 +27°C° 0.1 mm 1 mps 693 mmHg 46%
    14:00 +27°C° 0.2 mm 2 mps 692 mmHg 50%
    15:00 +26°C° 0.2 mm 2 mps 692 mmHg 53%
    16:00 +26°C° 0.2 mm 2 mps 692 mmHg 57%
    17:00 +24°C° 0.2 mm 1 mps 692 mmHg 66%
    18:00 +22°C° 0.2 mm 1 mps 691 mmHg 75%
    19:00 +20°C° 0.2 mm 1 mps 691 mmHg 84%
    20:00 +19°C° 0.1 mm 1 mps 691 mmHg 87%
    21:00 +16°C° 0.1 mm 1 mps 691 mmHg 91%
    22:00 +14°C° 0.1 mm 1 mps 691 mmHg 94%
    23:00 +14°C° 0.1 mm 1 mps 691 mmHg 94%

    31 May, Wednesday

    Time Temperature Precipitation Wind Pressure Humidity
    00:00 +14°C° 0.1 mm 1 mps 691 mmHg 94%
    01:00 +14°C° 0.1 mm 1 mps 691 mmHg 94%
    02:00 +14°C° 0.1 mm 1 mps 691 mmHg 95%
    03:00 +13°C° 0.1 mm 1 mps 690 mmHg 95%
    04:00 +13°C° 0.1 mm 1 mps 690 mmHg 95%
    05:00 +15°C° 0 mm 1 mps 691 mmHg 89%
    06:00 +18°C° 0 mm 1 mps 692 mmHg 84%
    07:00 +18°C° 0 mm 0 mps 692 mmHg 79%
    08:00 +22°C° 0.4 mm 1 mps 693 mmHg 73%
    09:00 +24°C° 0.4 mm 1 mps 693 mmHg 67%
    10:00 +25°C° 0.4 mm 1 mps 694 mmHg 61%
    11:00 +26°C° 0.9 mm 1 mps 693 mmHg 61%
    12:00 +26°C° 0.9 mm 1 mps 693 mmHg 61%
    13:00 +26°C° 0.9 mm 1 mps 693 mmHg 61%
    14:00 +26°C° 1 mm 1 mps 693 mmHg 63%
    15:00 +25°C° 1 mm 1 mps 693 mmHg 65%
    16:00 +25°C° 1 mm 1 mps 692 mmHg 67%
    17:00 +23°C° 0.4 mm 1 mps 692 mmHg 73%
    18:00 +22°C° 0.4 mm 1 mps 692 mmHg 80%
    19:00 +20°C° 0.4 mm 1 mps 692 mmHg 87%
    20:00 +19°C° 0.3 mm 1 mps 691 mmHg 89%
    21:00 +16°C° 0.3 mm 1 mps 691 mmHg 92%
    22:00 +15°C° 0.3 mm 1 mps 691 mmHg 95%
    23:00 +15°C° 0.6 mm 1 mps 691 mmHg 95%

    1 June, Thursday

    Time Temperature Precipitation Wind Pressure Humidity
    00:00 +14°C° 0.6 mm 1 mps 691 mmHg 95%
    01:00 +14°C° 0.6 mm 1 mps 691 mmHg 95%
    02:00 +14°C° 0.3 mm 1 mps 691 mmHg 95%
    03:00 +13°C° 0.3 mm 1 mps 691 mmHg 96%
    04:00 +13°C° 0.3 mm 1 mps 690 mmHg 96%
    05:00 +14°C° 0.3 mm 0 mps 691 mmHg 91%
    06:00 +16°C° 0.3 mm 0 mps 692 mmHg 86%
    07:00 +18°C° 0.3 mm 0 mps 692 mmHg 82%
    08:00 +20°C° 0.6 mm 0 mps 692 mmHg 77%
    09:00 +23°C° 0.6 mm 1 mps 693 mmHg 72%
    10:00 +25°C° 0.6 mm 1 mps 693 mmHg 67%
    11:00 +25°C° 1 mm 1 mps 693 mmHg 65%
    12:00 +25°C° 1 mm 1 mps 692 mmHg 63%
    13:00 +26°C° 1 mm 2 mps 692 mmHg 61%
    14:00 +26°C° 0.7 mm 2 mps 692 mmHg 62%
    15:00 +25°C° 0.7 mm 2 mps 692 mmHg 62%
    16:00 +25°C° 0.7 mm 2 mps 692 mmHg 62%
    17:00 +24°C° 0.3 mm 1 mps 691 mmHg 69%
    18:00 +22°C° 0.3 mm 1 mps 691 mmHg 76%
    19:00 +20°C° 0.3 mm 1 mps 691 mmHg 84%
    20:00 +18°C° 0.2 mm 1 mps 690 mmHg 88%
    21:00 +15°C° 0.2 mm 1 mps 690 mmHg 91%
    22:00 +14°C° 0.2 mm 1 mps 690 mmHg 95%
    23:00 +13°C° 0.1 mm 1 mps 690 mmHg 95%
    Show more